Alliance, NE

6:18 PM MST on January 16, 2017 (GMT -0700)
Alliance Municipal

Weather History for KAIA - December, 2011

Change the Weather History Date:

Sunday, December 4, 2011

  Actual Average Record
Temperature  
Mean Temperature 18 °F 25 °F  
Max Temperature 34 °F 41 °F 69 °F (1980)
Min Temperature 2 °F 10 °F -16 °F (2013)
Degree Days  
Heating Degree Days 47 40  
Month to date heating degree days 186 157  
Since 1 July heating degree days 1812 1956  
Cooling Degree Days 0 0  
Month to date cooling degree days 0 0  
Year to date cooling degree days 699 564  
Moisture  
Dew Point 11 °F    
Average Humidity 66    
Maximum Humidity 88    
Minimum Humidity 43    
Precipitation  
Precipitation T in 0.02 in 0.56 in (1960)
Month to date precipitation T 0.07  
Year to date precipitation 19.23 15.41  
Sea Level Pressure  
Sea Level Pressure 30.28 in    
Wind  
Wind Speed 13 mph (NNW)    
Max Wind Speed 28 mph    
Max Gust Speed 33 mph    
Visibility 8 miles    
Events Snow    
T = Trace of Precipitation, MM = Missing Value Source: NWS Daily Summary

Daily Weather History Graph

Daily Weather History Graph

Search for Another Location

Airport or City:

Trip Planner

Search our weather history database for the weather conditions in past years. The results will help you decide how hot, cold, wet, or windy it might be!

Date:

Astronomy

Dec. 04, 2011 Rise Set
Actual Time 7:02 AM MST 4:19 PM MST
Civil Twilight 6:31 AM MST 4:51 PM MST
Nautical Twilight 5:56 AM MST 5:26 PM MST
Astronomical Twilight 5:22 AM MST 5:59 PM MST
Moon 12:55 PM MST (12/4) 1:25 AM MST (12/4)
Length of Visible Light 10h 19m
Length of Day
9h 17m
Waxing Gibbous, 72% of the Moon is Illuminated
Dec 4
Waxing Gibbous
Dec 10
Full
Dec 17
Last Quarter
Dec 24
New
Dec 31
First Quarter

Hourly Weather History & Observations

Time (MST) Temp. Windchill Dew Point Humidity Pressure Visibility Wind Dir Wind Speed Gust Speed Precip Events Conditions
12:53 AM 5.0 °F -9.1 °F 1.0 °F 84% 30.17 in 10.0 mi West 9.2 mph - N/A   Clear
1:53 AM 3.0 °F -11.5 °F -0.9 °F 84% 30.17 in 10.0 mi West 9.2 mph - N/A   Clear
2:53 AM 6.1 °F -5.6 °F 1.0 °F 80% 30.16 in 10.0 mi WSW 6.9 mph - N/A   Clear
3:53 AM 7.0 °F - 3.0 °F 84% 30.14 in 10.0 mi Calm Calm - N/A   Clear
4:53 AM 10.0 °F 1.8 °F 5.0 °F 80% 30.15 in 10.0 mi West 4.6 mph - N/A   Scattered Clouds
5:53 AM 10.0 °F 0.4 °F 6.1 °F 84% 30.19 in 10.0 mi West 5.8 mph - N/A   Clear
6:53 AM 14.0 °F 1.2 °F 8.1 °F 77% 30.21 in 10.0 mi West 10.4 mph - N/A   Mostly Cloudy
7:53 AM 16.0 °F 5.3 °F 10.9 °F 81% 30.20 in 10.0 mi West 8.1 mph - N/A   Mostly Cloudy
8:53 AM 21.9 °F 10.4 °F 14.0 °F 72% 30.19 in 10.0 mi WNW 11.5 mph - N/A   Mostly Cloudy
9:53 AM 28.0 °F 15.3 °F 15.1 °F 58% 30.20 in 10.0 mi NW 18.4 mph 26.5 mph N/A   Clear
10:53 AM 30.9 °F 16.9 °F 15.1 °F 52% 30.19 in 10.0 mi NW 26.5 mph 32.2 mph N/A   Clear
11:53 AM 32.0 °F 18.9 °F 12.0 °F 44% 30.20 in 10.0 mi NNW 24.2 mph 29.9 mph N/A   Clear
12:53 PM 32.0 °F 19.5 °F 12.9 °F 45% 30.23 in 10.0 mi NNW 21.9 mph 27.6 mph N/A   Mostly Cloudy
1:53 PM 32.0 °F 19.8 °F 14.0 °F 48% 30.25 in 10.0 mi NNW 20.7 mph 27.6 mph N/A   Overcast
2:44 PM 26.6 °F 14.3 °F 17.6 °F 69% 30.14 in 10.0 mi NNE 16.1 mph - N/A   Overcast
2:53 PM 26.1 °F 15.6 °F 18.0 °F 71% 30.32 in 10.0 mi NNE 11.5 mph - N/A   Overcast
3:53 PM 24.1 °F 14.4 °F 18.0 °F 77% 30.35 in 2.5 mi North 9.2 mph - 0.00 in Snow Light Snow
3:59 PM 24.8 °F 14.6 °F 19.4 °F 80% 30.19 in 1.2 mi North 10.4 mph - 0.00 in Snow Light Snow
4:02 PM 24.8 °F 14.6 °F 17.6 °F 74% 30.20 in 0.8 mi North 10.4 mph - 0.00 in Snow Light Snow
4:11 PM 23.0 °F 11.1 °F 19.4 °F 86% 30.20 in 1.5 mi North 12.7 mph - 0.00 in Snow Light Snow
4:13 PM 23.0 °F 12.4 °F 17.6 °F 80% 30.20 in 3.0 mi North 10.4 mph - 0.00 in Snow Light Snow
4:26 PM 21.2 °F 9.5 °F 17.6 °F 86% 30.21 in 9.0 mi North 11.5 mph - 0.00 in   Overcast
4:53 PM 21.0 °F 5.7 °F 12.0 °F 68% 30.40 in 4.0 mi North 19.6 mph 28.8 mph 0.00 in Snow Light Snow
4:57 PM 21.2 °F 6.4 °F 12.2 °F 68% 30.23 in 2.5 mi NNW 18.4 mph 28.8 mph 0.00 in Snow Light Snow
5:13 PM 19.4 °F 6.0 °F 15.8 °F 86% 30.25 in 1.2 mi North 13.8 mph 26.5 mph 0.00 in Snow Light Snow
5:19 PM 19.4 °F 5.5 °F 15.8 °F 86% 30.25 in 1.0 mi North 15.0 mph - 0.00 in Snow Light Snow
5:26 PM 19.4 °F 6.6 °F 15.8 °F 86% 30.26 in 1.5 mi North 12.7 mph - 0.00 in Snow Light Snow
5:30 PM 19.4 °F 6.6 °F 15.8 °F 86% 30.26 in 2.0 mi North 12.7 mph - 0.00 in Snow Light Snow
5:40 PM 17.6 °F 4.3 °F 12.2 °F 79% 30.26 in 7.0 mi North 12.7 mph - 0.00 in Snow Light Snow
5:51 PM 17.6 °F 2.7 °F 8.6 °F 68% 30.27 in 10.0 mi North 16.1 mph 23.0 mph 0.00 in   Overcast
5:53 PM 18.0 °F 3.6 °F 9.0 °F 68% 30.45 in 10.0 mi North 15.0 mph - 0.00 in   Overcast
6:53 PM 16.0 °F 2.9 °F 9.0 °F 74% 30.48 in 10.0 mi North 11.5 mph - N/A   Overcast
7:53 PM 14.0 °F -2.0 °F 6.1 °F 71% 30.51 in 10.0 mi North 16.1 mph - N/A   Mostly Cloudy
8:53 PM 12.0 °F -5.1 °F 5.0 °F 73% 30.53 in 10.0 mi NNW 17.3 mph - N/A   Mostly Cloudy
9:53 PM 9.0 °F -5.9 °F 3.0 °F 77% 30.54 in 10.0 mi NNW 11.5 mph - N/A   Partly Cloudy
10:53 PM 8.1 °F -5.3 °F 1.0 °F 73% 30.56 in 10.0 mi NNW 9.2 mph - N/A   Clear
11:53 PM 5.0 °F -6.9 °F -0.9 °F 76% 30.57 in 10.0 mi NNW 6.9 mph - N/A   Mostly Cloudy